Probability
0 2 5 8 8 8 9 10 11 11 8 7 8 9 9 7 5 3 2 2 3 3 3 2 1 0 0 0 0 0 0 0 0 0 0 0 0 0 0 0 0 0 0
0 2 5 7 8 9 9 10 10 9 8 7 8 9 9 7 5 4 3 3 3 3 3 3 1 0 0 0 0 0 0 0 0 0 0 0 0 0 0 0 0 0 0
1 2 5 7 8 9 10 9 9 8 7 7 7 8 9 7 6 6 4 3 3 4 3 3 2 1 0 0 0 0 0 0 0 0 0 0 0 0 1 1 0 0 1
0 2 4 5 7 8 9 9 8 7 7 7 7 8 9 8 8 7 5 4 4 4 4 3 2 1 0 0 0 0 0 0 0 0 0 0 0 0 1 2 1 1 2
0 1 3 5 6 7 8 8 9 8 7 6 6 7 8 9 8 7 5 4 4 4 4 2 1 0 0 0 0 0 0 0 0 0 0 0 0 0 1 2 2 2 3
0 1 3 5 6 6 7 7 8 8 7 6 6 7 8 9 9 7 5 4 3 2 2 1 0 0 0 0 0 0 0 0 0 0 0 0 0 0 0 1 1 2 3
1 2 4 6 6 6 6 6 6 7 7 6 6 6 7 8 9 7 5 5 4 1 0 0 0 0 0 0 0 0 0 0 0 0 0 0 0 1 1 0 0 2 3
2 3 4 5 6 6 6 6 5 5 6 6 5 5 6 7 8 7 7 6 4 1 0 0 0 0 0 0 0 0 0 0 0 0 0 0 1 2 2 1 1 2 3
3 4 4 5 5 5 6 5 4 4 5 5 4 4 4 5 5 5 6 6 4 1 0 0 0 0 0 0 0 0 0 0 0 0 0 0 1 2 3 3 2 2 3
2 3 4 4 4 4 4 4 3 3 3 4 3 3 3 3 2 2 3 4 3 1 0 0 0 0 0 0 0 0 0 0 0 0 0 0 0 1 2 3 3 3 4
1 2 3 3 3 3 3 3 3 3 3 3 3 1 1 1 1 0 1 2 1 0 0 0 0 0 0 0 0 0 0 0 0 0 0 0 0 0 1 2 3 3 4
0 1 3 3 3 3 3 3 3 3 3 3 2 1 0 0 0 0 0 0 0 0 0 0 0 0 0 0 0 0 0 0 0 0 0 0 0 1 1 1 2 3 3
0 1 2 3 3 3 3 3 3 3 3 3 2 0 0 0 0 0 0 0 0 0 0 0 0 0 0 0 0 0 0 0 0 0 0 0 0 1 2 1 2 3 3
0 0 1 3 3 3 3 3 3 3 3 3 2 1 0 0 0 0 0 0 0 0 0 0 0 0 0 0 0 0 0 0 0 0 0 0 0 1 2 1 1 3 3
0 0 1 2 3 3 3 3 3 3 3 3 3 2 1 0 0 0 0 0 0 0 0 0 0 0 0 0 0 0 0 0 0 0 0 0 0 1 1 1 1 2 2
0 0 0 1 3 3 3 3 3 3 3 3 3 2 1 0 0 0 0 0 0 0 0 0 0 0 0 0 0 0 0 0 0 0 0 0 0 0 0 0 0 1 1
1 2 1 1 2 3 3 3 3 3 3 3 3 2 1 0 0 0 0 0 0 0 0 0 0 0 0 0 0 0 0 0 0 0 0 0 0 0 0 0 0 0 0
2 3 3 2 2 3 3 3 3 3 3 3 2 1 0 0 0 0 0 0 0 0 0 0 0 0 0 0 0 0 0 0 0 0 0 0 0 0 0 0 0 0 0
2 3 3 3 3 3 3 3 3 3 3 2 1 0 0 0 0 0 0 0 0 0 0 0 0 0 0 0 0 0 0 0 0 0 0 0 0 0 0 0 0 0 0
1 2 3 3 4 4 4 3 3 3 3 1 0 0 0 0 0 0 0 0 0 0 0 0 0 0 0 0 0 0 0 0 0 0 0 0 0 0 0 0 0 0 0
0 1 2 3 4 5 5 4 4 3 2 1 0 0 0 0 0 0 0 0 0 0 0 0 0 0 0 0 0 0 0 0 0 0 0 0 0 0 0 0 0 0 0
0 0 1 2 3 5 6 6 5 4 2 1 0 0 0 0 0 0 0 0 0 0 0 0 0 0 0 0 0 0 0 0 0 0 0 0 0 0 0 0 0 0 0
0 0 0 1 3 4 5 6 6 4 2 1 0 0 0 0 0 0 0 0 0 0 0 0 0 0 0 0 0 0 0 0 0 0 0 0 0 0 0 0 0 0 0
0 0 0 1 2 3 4 5 5 4 2 0 0 0 0 0 0 0 0 0 0 0 0 0 0 0 0 0 0 0 0 0 0 0 0 0 0 0 0 0 0 0 0
0 0 0 0 1 2 3 4 4 4 2 1 0 0 0 0 0 0 0 0 0 0 0 0 0 0 0 0 0 0 0 0 0 0 0 0 0 0 0 0 0 0 0
0 0 0 0 0 1 3 3 3 3 2 1 0 0 0 0 0 0 0 0 0 0 0 0 0 0 0 0 0 0 0 0 0 0 0 0 0 0 0 0 0 0 0
Wind_Speed
2 2 2 3 5 6 6 7 7 7 7 7 7 8 8 8 8 9 9 8 8 8 9 9 9 10 10 10 10 11 11 11 11 11 11 11 11 11 11 10 9 6 11
2 1 2 3 5 6 6 6 7 7 7 7 7 7 7 7 7 8 8 8 8 8 8 8 9 9 9 10 10 10 10 10 11 10 10 9 9 10 10 10 10 7 10
2 1 2 3 5 6 6 6 7 7 7 6 7 7 7 7 7 8 8 8 8 8 8 8 8 8 9 8 9 10 10 10 10 9 8 5 5 9 9 9 10 10 9
2 2 2 3 4 6 6 6 6 6 6 6 6 6 6 6 7 7 8 8 8 8 8 8 8 8 8 8 8 9 9 9 9 8 4 4 4 8 9 9 9 10 10
2 1 2 4 4 5 6 6 6 6 6 6 6 5 6 6 6 7 7 7 7 8 8 8 8 8 8 8 8 8 8 9 9 6 4 4 3 7 8 8 9 9 9
2 1 2 3 4 5 5 5 6 5 5 5 5 5 5 6 6 6 7 7 7 7 8 8 8 8 8 8 8 8 8 8 7 4 3 3 2 6 8 8 8 8 8
2 2 2 3 4 4 5 5 5 5 5 5 5 5 5 5 6 6 7 7 8 7 7 8 8 8 8 8 8 8 8 8 5 3 3 2 2 6 6 7 7 7 7
3 2 2 3 3 3 4 4 5 5 5 5 5 5 5 5 6 6 7 7 7 7 7 7 8 8 8 8 8 8 8 7 5 3 2 2 3 5 5 6 5 6 6
2 2 2 2 2 3 3 3 3 4 4 5 5 5 5 5 5 6 6 7 7 7 7 7 8 8 8 8 8 8 8 7 4 2 2 1 3 4 4 5 5 5 6
2 2 2 2 2 2 2 4 4 5 5 6 5 5 5 5 5 5 5 6 8 8 8 8 7 8 8 8 8 8 8 6 4 3 2 2 3 3 4 4 4 4 5
2 1 1 1 2 2 2 3 4 4 5 5 5 6 5 3 3 3 4 6 7 7 7 7 7 8 8 7 7 7 6 3 3 2 2 3 4 4 3 3 3 3 4
1 0 1 1 2 2 2 2 2 3 3 4 3 4 3 3 3 4 5 6 7 7 7 7 6 7 6 3 4 5 2 3 2 2 2 4 4 4 3 3 3 3 3
3 1 1 1 2 2 2 2 2 2 2 3 3 3 3 3 3 3 3 4 4 5 4 4 4 3 3 2 2 2 2 2 1 1 2 4 4 3 3 3 3 3 3
1 1 1 1 2 2 2 2 2 2 2 2 2 3 3 2 3 3 2 2 2 2 2 2 2 3 3 3 3 3 3 2 1 1 2 5 4 3 3 3 3 3 3
2 2 1 2 2 3 3 2 2 2 2 2 2 2 3 3 3 3 2 2 2 2 2 2 2 2 2 2 2 3 3 2 2 2 2 5 5 5 4 3 3 2 2
2 2 2 2 3 3 3 3 3 2 2 2 2 2 3 3 3 3 3 2 2 2 2 1 2 2 2 2 2 2 2 2 2 2 2 3 5 5 5 4 4 4 2
3 2 2 2 2 3 3 3 3 2 3 2 2 2 3 3 3 3 3 2 1 2 2 2 2 2 2 2 2 2 2 2 2 3 3 2 3 5 5 5 5 5 4
2 2 1 2 3 3 3 3 2 3 3 2 2 2 3 3 4 3 3 2 2 2 2 2 2 2 2 1 1 2 1 1 2 2 2 3 2 3 4 5 5 5 5
1 1 1 1 3 3 3 3 3 3 2 2 2 2 2 3 4 3 3 2 2 2 2 2 2 1 1 1 1 1 1 1 1 1 2 2 2 2 2 4 5 5 5
0 0 0 0 1 2 3 3 2 3 2 2 2 2 3 3 3 3 3 3 3 2 2 2 2 1 1 1 1 2 1 1 1 1 1 1 2 2 3 3 3 3 5
1 1 0 1 1 1 2 3 3 2 2 2 2 3 3 3 3 3 3 3 3 2 2 2 2 2 2 1 2 2 2 1 1 1 1 1 2 2 2 2 2 2 2
1 1 0 0 1 1 2 2 2 3 2 2 2 3 3 3 3 3 3 3 3 3 3 2 3 2 1 1 1 1 1 2 1 1 1 1 1 1 2 2 2 2 2
2 1 1 0 1 1 1 2 2 2 2 2 2 2 2 3 3 2 3 3 3 3 3 3 2 2 1 0 0 1 1 2 2 2 1 1 1 1 2 2 2 2 2
1 2 1 0 1 1 1 2 3 3 3 3 2 2 2 3 3 2 2 3 3 2 2 2 2 1 2 1 0 0 1 1 1 2 2 1 1 2 2 2 2 2 2
1 1 1 0 1 1 1 3 3 2 2 1 2 3 3 2 2 2 2 2 2 2 3 2 2 2 2 2 1 1 1 1 1 2 3 3 2 2 2 2 2 2 2
1 1 1 0 0 1 1 2 3 3 3 2 2 2 2 2 2 2 2 2 2 2 2 2 3 3 2 2 1 1 1 1 2 1 2 3 4 3 3 2 2 2 2
Wind_Direction
259 270 222 139 130 120 111 104 102 100 101 103 103 102 100 100 108 110 107 102 100 98 95 94 92 88 86 84 83 80 77 74 74 76 76 76 75 74 73 70 68 64 71
188 208 186 140 133 126 119 114 109 104 103 106 106 105 101 101 107 113 109 105 102 99 97 96 93 91 87 84 82 82 80 76 72 70 69 71 74 76 77 74 71 71 70
129 156 158 135 134 126 122 119 115 112 106 105 107 105 105 107 108 113 109 106 104 101 98 95 92 91 88 88 87 85 83 81 75 68 62 50 66 78 77 75 73 70 70
136 145 152 128 129 130 128 125 119 117 115 108 108 108 106 109 111 113 111 109 106 103 100 96 93 92 88 89 90 89 86 80 73 67 55 42 52 78 79 76 73 71 69
131 123 141 124 126 132 131 130 126 121 120 117 112 112 111 111 116 114 109 108 108 105 101 98 96 92 90 90 90 90 87 79 69 60 51 44 50 73 75 77 73 69 69
130 114 138 126 129 128 132 130 128 124 120 118 116 111 115 116 118 117 112 108 105 103 103 100 98 94 91 89 88 88 86 76 63 55 47 40 50 75 75 81 78 71 68
141 123 137 126 127 129 130 134 130 124 119 116 119 117 110 112 111 115 115 110 104 100 98 98 96 94 91 89 86 85 82 74 62 55 44 37 63 78 75 74 76 76 71
140 125 122 125 119 122 123 129 131 127 120 117 118 117 107 102 99 105 106 104 103 101 101 99 96 94 90 87 83 80 75 67 60 51 42 41 66 79 81 78 77 80 75
115 114 112 117 117 111 109 106 114 116 111 107 105 104 102 98 97 100 100 102 103 101 100 99 97 92 88 84 80 74 67 58 49 38 31 35 65 75 80 81 84 85 83
82 89 107 106 100 98 103 94 95 94 92 91 86 80 84 90 91 91 99 101 101 98 96 93 90 88 85 81 77 71 63 52 40 28 16 32 53 66 73 81 84 84 86
65 48 76 101 103 101 103 96 95 91 86 84 81 75 77 82 86 88 88 98 98 94 90 87 86 84 78 75 70 64 59 54 40 23 12 35 46 54 60 67 78 88 88
208 224 112 140 128 115 106 95 93 91 85 79 78 75 74 77 78 81 73 75 80 81 80 77 76 77 71 67 59 53 55 51 42 22 20 28 41 44 42 55 74 91 94
208 191 161 162 141 129 124 111 97 93 85 81 81 79 80 81 79 74 71 62 62 69 73 70 67 69 68 65 59 53 51 52 39 18 14 17 29 37 39 42 68 82 90
192 214 209 162 142 143 132 124 113 105 102 96 88 89 94 92 83 80 76 64 57 53 59 67 76 72 66 62 63 55 42 38 31 17 14 16 17 27 36 42 63 68 89
209 221 219 172 161 156 143 137 124 123 122 119 110 103 104 110 104 90 81 67 60 57 56 59 77 72 66 56 55 58 44 31 27 19 12 21 16 16 23 35 47 64 76
232 226 207 180 174 155 150 150 142 134 127 115 111 108 113 115 114 108 95 81 65 61 59 67 78 76 64 58 49 45 45 33 26 19 11 11 18 19 21 27 32 31 35
242 233 201 188 162 158 159 156 140 136 132 128 126 115 113 113 119 115 109 96 82 75 72 73 68 68 64 54 43 33 38 35 24 17 14 9 5 15 21 20 21 20 18
246 229 214 184 159 163 160 154 145 138 137 140 133 119 115 115 118 117 112 108 102 97 91 91 80 70 59 53 38 22 24 30 22 15 19 17 8 360 7 13 10 7 1
240 231 221 217 165 167 162 147 134 129 128 141 135 126 125 122 125 123 119 114 112 104 95 95 82 85 83 62 37 18 15 2 345 5 14 12 10 1 351 1 4 4 358
258 254 204 200 152 161 156 140 128 118 122 124 132 133 132 133 131 131 123 115 109 103 93 93 92 74 93 89 49 25 7 335 330 347 339 343 358 7 2 358 351 352 359
39 39 115 128 155 154 159 162 161 168 154 138 132 129 132 131 134 138 132 127 121 120 122 117 105 92 60 56 62 23 357 4 327 324 324 343 346 351 3 1 349 347 343
14 5 102 125 128 159 170 171 165 160 149 145 135 130 135 138 143 144 144 144 139 127 118 118 108 112 86 50 79 72 343 330 346 338 333 343 328 343 360 357 358 355 339
11 343 281 212 128 171 150 138 127 124 126 136 149 150 146 148 147 152 156 149 148 148 157 157 145 139 154 241 81 147 167 231 309 307 294 304 318 330 324 324 334 335 334
317 331 340 181 150 162 147 146 150 163 173 181 176 167 149 149 148 151 152 155 158 159 163 170 165 163 157 187 272 306 234 181 188 279 294 303 316 308 295 307 314 313 313
267 289 315 42 107 140 148 152 153 152 157 155 149 150 154 147 137 142 145 154 162 165 169 169 173 171 179 191 188 217 280 307 226 219 269 289 296 283 283 280 279 291 294
333 355 31 42 91 99 147 147 148 157 150 136 133 153 157 151 149 148 146 155 166 174 177 181 182 184 198 194 199 199 205 214 220 218 248 274 278 281 284 266 262 278 290